TimeEDT,TemperatureF,Dew PointF,Humidity,Sea Level PressureIn,VisibilityMPH,Wind Direction,Wind SpeedMPH,Gust SpeedMPH,PrecipitationIn,Events,Conditions,WindDirDegrees,DateUTC
12:53 AM,72.0,62.1,71,29.86,10.0,West,3.5,-,N/A,,Mostly Cloudy,270,2013-06-12 04:53:00
1:53 AM,70.0,60.1,71,29.86,10.0,WNW,3.5,-,N/A,,Scattered Clouds,290,2013-06-12 05:53:00
2:53 AM,69.1,60.1,73,29.86,10.0,Calm,Calm,-,N/A,,Clear,0,2013-06-12 06:53:00
3:53 AM,66.9,60.1,79,29.86,8.0,SW,4.6,-,N/A,,Partly Cloudy,230,2013-06-12 07:53:00
4:53 AM,64.9,60.1,84,29.88,7.0,WSW,4.6,-,N/A,,Scattered Clouds,240,2013-06-12 08:53:00
5:53 AM,64.9,60.1,84,29.90,7.0,West,4.6,-,N/A,,Mostly Cloudy,270,2013-06-12 09:53:00
6:53 AM,68.0,61.0,78,29.89,10.0,Calm,Calm,-,N/A,,Mostly Cloudy,0,2013-06-12 10:53:00
7:53 AM,70.0,61.0,73,29.90,10.0,Calm,Calm,-,N/A,,Mostly Cloudy,0,2013-06-12 11:53:00
8:53 AM,73.0,62.1,68,29.89,10.0,Calm,Calm,-,N/A,,Mostly Cloudy,0,2013-06-12 12:53:00
9:53 AM,72.0,63.0,73,29.91,10.0,SSE,3.5,-,N/A,,Overcast,160,2013-06-12 13:53:00
10:53 AM,72.0,63.0,73,29.90,10.0,SSE,3.5,-,0.00,,Overcast,150,2013-06-12 14:53:00
11:53 AM,73.0,63.0,71,29.94,10.0,West,3.5,-,N/A,,Overcast,260,2013-06-12 15:53:00
12:53 PM,73.0,64.9,76,29.84,10.0,ENE,5.8,-,0.01,,Overcast,60,2013-06-12 16:53:00
1:53 PM,73.0,64.0,73,29.85,10.0,South,9.2,-,N/A,,Overcast,170,2013-06-12 17:53:00
2:53 PM,73.9,64.0,71,29.87,10.0,South,8.1,-,0.00,,Overcast,170,2013-06-12 18:53:00
3:53 PM,75.0,64.0,69,29.81,10.0,East,6.9,-,N/A,,Overcast,90,2013-06-12 19:53:00
4:53 PM,75.9,64.9,69,29.82,10.0,ENE,3.5,-,N/A,,Overcast,70,2013-06-12 20:53:00
5:53 PM,75.0,64.9,71,29.83,9.0,North,5.8,-,N/A,,Overcast,10,2013-06-12 21:53:00
6:53 PM,73.9,66.0,76,29.80,7.0,ENE,5.8,-,0.00,Rain,Light Rain,60,2013-06-12 22:53:00
7:53 PM,73.0,64.9,76,29.77,7.0,ENE,4.6,-,0.00,,Overcast,70,2013-06-12 23:53:00
8:30 PM,71.6,66.2,83,29.77,3.0,Calm,Calm,-,0.01,Rain-Thunderstorm,Thunderstorms and Rain,0,2013-06-13 00:30:00
8:37 PM,69.8,66.2,88,29.78,2.0,NNE,3.5,-,0.06,Rain-Thunderstorm,Heavy Thunderstorms and Rain,30,2013-06-13 00:37:00
8:49 PM,69.8,66.2,88,29.77,1.5,NE,6.9,-,0.11,Rain-Thunderstorm,Heavy Thunderstorms and Rain,40,2013-06-13 00:49:00
8:53 PM,71.1,66.0,84,29.75,1.5,Variable,5.8,-,0.11,Rain-Thunderstorm,Heavy Thunderstorms and Rain,0,2013-06-13 00:53:00
8:58 PM,69.8,66.2,88,29.77,2.0,East,6.9,-,0.00,Rain-Thunderstorm,Light Thunderstorms and Rain,90,2013-06-13 00:58:00
9:10 PM,69.8,66.2,88,29.76,3.0,SE,8.1,-,0.00,Thunderstorm,Overcast,130,2013-06-13 01:10:00
9:14 PM,69.8,66.2,88,29.75,3.0,SE,5.8,-,0.00,,Overcast,140,2013-06-13 01:14:00
9:41 PM,69.8,66.2,88,29.76,3.0,ENE,4.6,-,0.00,,Overcast,70,2013-06-13 01:41:00
9:53 PM,69.1,66.0,90,29.75,3.0,NNE,4.6,-,0.00,,Overcast,20,2013-06-13 01:53:00
10:53 PM,68.0,64.9,90,29.69,5.0,ENE,6.9,-,N/A,,Overcast,60,2013-06-13 02:53:00
11:20 PM,68.0,64.4,88,29.68,5.0,ENE,6.9,-,N/A,Thunderstorm,Overcast,60,2013-06-13 03:20:00
11:42 PM,68.0,64.4,88,29.68,6.0,East,4.6,-,N/A,,Overcast,90,2013-06-13 03:42:00
11:53 PM,66.9,64.0,90,29.65,6.0,East,5.8,-,0.00,Rain,Light Rain,80,2013-06-13 03:53:00
11:57 PM,66.2,64.4,94,29.67,5.0,Variable,3.5,-,0.00,Rain-Thunderstorm,Light Thunderstorms and Rain,0,2013-06-13 03:57:00